Regional Weather Roundup
Issued by NWS

Home | Current Version | Previous Version | Graphics & Text | Print | Product List | Glossary On
Versions: 1 2 3 4 5 6 7 8 9 10 11 12 13 14 15 16 17 18 19 20 21 22 23 24 25 26 27 28 29 30 31 32 33 34 35 36 37 38 39 40 41 42 43 44 45 46 47 48 49 50
000
ASUS43 KLOT 011204
RWRIL

ILLINOIS REGIONAL WEATHER ROUNDUP
NATIONAL WEATHER SERVICE CHICAGO/ROMEOVILLE IL
700 AM CDT SAT OCT 01 2016

NOTE: "FAIR" INDICATES FEW OR NO CLOUDS BELOW 12,000 FEET WITH NO
SIGNIFICANT WEATHER AND/OR OBSTRUCTIONS TO VISIBILITY.

* THESE STATIONS ARE NOT UNDER NWS QUALITY CONTROL. THEY ALSO MAY NOT
  REPORT WEATHER SUCH AS PRECIPITATION OR FOG.

ILZ001-002-007-009-015-016-024-011300-
NORTHWEST ILLINOIS

CITY           SKY/WX    TMP DP  RH WIND       PRES   REMARKS
MOLINE         CLOUDY    61  58  90 N7        30.05R
6HR MIN TEMP:  61; 6HR MAX TEMP:  62; 6HR PCP:  0.01;

STERLING*      CLOUDY    60  59  96 NE5       30.05R
$$

ILZ003-004-008-010-011-017-018-011300-
NORTH CENTRAL ILLINOIS

CITY           SKY/WX    TMP DP  RH WIND       PRES   REMARKS
ROCKFORD       MOCLDY    58  56  93 NE5       30.07R
6HR MIN TEMP:  58; 6HR MAX TEMP:  61; 6HR PCP:  0.01;

FREEPORT*      CLOUDY    58  58  98 NE3       30.07R
ROCHELLE*      CLOUDY    58  57  99 NE7       30.05S FOG
$$

ILZ005-006-012>014-019>023-011300-
NORTHEAST ILLINOIS

CITY           SKY/WX    TMP DP  RH WIND       PRES   REMARKS
CHICAGO-OHARE  MOCLDY    58  56  93 NW5       30.01F
6HR MIN TEMP:  57; 6HR MAX TEMP:  62;

CHICAGO-MIDWAY CLOUDY    62  56  80 N7        30.01S
6HR MIN TEMP:  59; 6HR MAX TEMP:  63;

AURORA         CLEAR     56  54  93 NE3       30.03F FOG
6HR MIN TEMP:  55; 6HR MAX TEMP:  62; 6HR PCP: TRACE;

LANSING*       RAIN      58  58 100 W3        30.01S
WAUKEGAN       CLOUDY    59  58  96 NW3       30.02S
6HR MIN TEMP:  57; 6HR MAX TEMP:  62;

DUPAGE AIRPORT PTCLDY    54  52  93 N5        30.02F
6HR MIN TEMP:  53; 6HR MAX TEMP:  61;

KANKAKEE*      CLOUDY    57  56  97 CALM      30.02R
WHEELING       CLOUDY    59  57  93 NW6       30.03F
6HR MIN TEMP:  57; 6HR MAX TEMP:  61; 6HR PCP: TRACE;

NORTHERLY ISL    N/A     61  56  83 NW3         N/A
$$

LMZ740>746-011300-
SOUTHERN LAKE MICHIGAN

STATION/POSITION SKY/WX   TEMP    WIND        PRES    VSBY  WAVE
                          AIR SEA DIR/SP/G                  HT/PER
                          (F)     (DEG/KT/KT) (MB)    (MI)  (FT/S)
SOUTHERN BUOY              63 67   60/ 14/ 14 1016.5          3/ 6
WILMETTE HARBOR            60 59  340/  6/  8   N/A           3/ 6
HARRISON CRIB              62     340/ 13/ 14   N/A
BURNHAM HARBOR             61     330/  7/  8   N/A
CALUMET HARBOR             60     300/  4/  7 1015.6F
BURNS HARBOR               62      40/ 14/ 15 1016.3S
MICHIGAN CITY              59      40/ 14/ 16   N/A
MICHIGAN CITY 6N           60 64   40/ 14/ 19   N/A           4/ 6
ST. JOSEPH                 53 51   30/ 10/ 12 1016.6R         3/ 6
$$

ILZ025>027-034>036-040-047-049-050-058-095>099-011300-
WEST-CENTRAL ILLINOIS

CITY           SKY/WX    TMP DP  RH WIND       PRES   REMARKS
QUINCY         CLOUDY    61  59  93 NW7       30.06R
GALESBURG*     CLOUDY    59  58  97 N5        30.04S
MACOMB*        CLOUDY    60  59  97 NW3       30.07R
$$

ILZ028>032-037-038-041>044-048-051>054-059>061-011300-
CENTRAL ILLINOIS

CITY           SKY/WX    TMP DP  RH WIND       PRES   REMARKS
BLOOMINGTON    CLOUDY    58  57  97 NE3       30.03R
DECATUR        CLOUDY    61  58  90 NE6       30.01R
PEORIA         LGT RAIN  60  60 100 NW3       30.03R FOG
6HR MIN TEMP:  60; 6HR MAX TEMP:  62; 6HR PCP: TRACE;

LINCOLN*       CLOUDY    60  60 100 NW3       30.02R FOG
SPRINGFIELD    CLOUDY    62  60  93 N5        30.03R
6HR MIN TEMP:  61; 6HR MAX TEMP:  62; 6HR PCP:  0.01;

TAYLORVILLE    NOT AVBL
$$

ILZ033-039-045-046-055>057-062-063-011300-
EAST-CENTRAL ILLINOIS

CITY           SKY/WX    TMP DP  RH WIND       PRES   REMARKS
CHAMPAIGN      CLOUDY    59  57  93 N3        30.01R FOG
MATTOON        CLOUDY    60  58  92 NW3       29.99R FOG
$$

ILZ079-100>102-011300-
SOUTHWEST ILLINOIS

CITY           SKY/WX    TMP DP  RH WIND       PRES   REMARKS
ALTON          CLOUDY    61  59  94 NW8       30.03R FOG
BELLEVILLE     PTCLDY    62  62 100 NW7       30.02R
CAHOKIA*       CLOUDY    63  59  87 NW8       30.03R
SPARTA*        CLOUDY    61  60  96 NW9       30.04R
$$

ILZ064>066-069>071-074>076-080>082-084>086-088>090-092>094-011300-
SOUTH-CENTRAL ILLINOIS

CITY           SKY/WX    TMP DP  RH WIND       PRES   REMARKS
CARBONDALE     CLOUDY    60  60 100 W3        30.02S
6HR MIN TEMP:  60; 6HR MAX TEMP:  61; 6HR PCP: TRACE;

MARION         CLOUDY    63  61  94 W6        30.02S FOG
MT. VERNON     CLOUDY    61  55  82 CALM      30.01R
CENTRALIA*     CLOUDY    61  61 100 NW3       30.00S
SALEM*         CLOUDY    62  59  91 CALM      30.00S
METROPOLIS*    MOCLDY    60  59  97 CALM      30.04R FOG
$$

ILZ067-068-072-073-078-083-087-091-011300-
SOUTHEAST ILLINOIS

CITY           SKY/WX    TMP DP  RH WIND       PRES   REMARKS
LAWRENCEVILLE  FOG       57  56  96 S5        30.01R VSB 1/2
FLORA*         CLOUDY    61  61  97 CALM      30.01R FOG
HARRISBURG*    CLOUDY    62  61  99 W6        30.02R FOG
ROBINSON*      RAIN      55  55 100 CALM      30.01S VSB<1/4
$$

ABBREVIATIONS USED IN REMARKS
   TC - TEMPERATURE IN CELSIUS
  WCI - WIND CHILL INDEX
   HX - HEAT INDEX
  VSB - VISIBILITY
$$





USA.gov is the U.S. government's official web portal to all federal, state and local government web resources and services.